Location: Goettingen
(51.5300°N, 9.9433°E)
Time: 07:01:10
(UTC+01:00)

BlueWalker 3 - Visible Passes

Search period start: 20 January 2026 00:00
Search period end: 30 January 2026 00:00
Orbit: 451 x 463 km, 53.2° (Epoch: 19 January)

Date Brightness Start Highest point End Pass type
(mag) Time Alt. Az. Time Alt. Az. Time Alt. Az.
20 Jan 4.2 18:58:55 10° S 18:59:36 13° SSE 18:59:36 13° SSE visible
21 Jan 3.9 18:24:15 10° SSE 18:25:52 13° SE 18:25:59 13° SE visible
21 Jan 4.6 19:59:16 10° SW 19:59:45 13° SW 19:59:45 13° SW visible
22 Jan 4.2 17:50:29 10° SE 17:50:37 10° SE 17:50:45 10° SE visible
22 Jan 3.3 19:23:58 10° SW 19:26:02 29° SSW 19:26:02 29° SSW visible
23 Jan 2.4 18:48:42 10° SW 18:52:01 36° SSE 18:52:15 36° SE visible
23 Jan 5.1 20:25:46 10° W 20:26:00 11° W 20:26:00 11° W visible
24 Jan 2.8 18:13:28 10° SSW 18:16:39 30° SE 18:18:23 20° E visible
24 Jan 3.7 19:50:20 10° WSW 19:52:08 28° WSW 19:52:08 28° WSW visible
25 Jan 3.2 17:38:17 10° SSW 17:41:17 25° SE 17:44:17 10° E visible
25 Jan 1.8 19:14:53 10° WSW 19:18:12 76° WSW 19:18:12 76° WSW visible
26 Jan 1.7 18:39:26 10° WSW 18:43:00 76° SSE 18:44:14 38° E visible
26 Jan 4.6 20:17:02 10° W 20:17:58 17° W 20:17:58 17° W visible
27 Jan 1.8 18:04:00 10° WSW 18:07:32 66° SSE 18:10:12 17° ENE visible
27 Jan 3.1 19:41:32 10° W 19:43:56 38° WNW 19:43:56 38° WNW visible
28 Jan 1.7 19:06:01 10° W 19:09:34 67° N 19:09:53 62° NNE visible
29 Jan 1.8 18:30:28 10° W 18:34:02 71° N 18:35:49 27° ENE visible
29 Jan 4.2 20:08:07 10° WNW 20:09:33 22° WNW 20:09:33 22° WNW visible
